Flag for U.S.A. Weather past 2 weeks in Port St. Lucie, Florida, U.S.A.

Now
70 °F

Clear.


Feels Like: 70 °F
Forecast: 67 / 85 °F
Wind: 5 mph from South

Location: Witham Field Airport

Current Time: Mar 5, 2015 at 3:45:33 AM

Latest Report: Mar 5, 2015 at 3:15 AM


Visibility: 10 mi

Pressure: 30.08 "Hg

Humidity: 88%

Dew point: 66 °F

Location of Port St. LucieLocation

Historic Weather in Port St. Lucie — Graph

°F

Port St. Lucie temperature yesterday

Maximum temperature yesterday: 82 °F (at 2:47 PM)
Minimum temperature yesterday: 68 °F (at 4:55 AM)
Average temperature yesterday: 72 °F

Past Weeks' High & Low Weather Summary

 TemperatureHumidityPressure
High82 °F (Feb 23, 12:47 PM)100% (Feb 21, 11:55 PM)30.40 "Hg (Feb 21, 11:55 PM)
Low34 °F (Feb 27, 4:47 PM)18% (Feb 19, 2:47 PM)29.79 "Hg (Feb 26, 2:15 AM)
Average65 °F79%30.16 "Hg
* Reported Feb 18 2:15 AM — Mar 5 2:35 AM, Port St. Lucie, Weather by CustomWeather, © 2015

Note: Actual official high and low records may vary slightly from our data, if they occured in-between our weather recording intervals... More about our weather records

Advertising

Port St. Lucie weather history for previous 24 hours

 ConditionsComfort  
Time TempWeatherWind HumidityBarometerVisibility
2:35 AM
Thu, Mar 5
70 °FClear.5 mph94%30.08 "Hg10 mi
2:15 AM70 °FClear.6 mph94%30.09 "Hg10 mi
1:55 AM72 °FClear.7 mph88%30.10 "Hg10 mi
1:35 AM70 °FPassing clouds.5 mph94%30.11 "Hg10 mi
1:15 AM72 °FPassing clouds.7 mph88%30.11 "Hg10 mi
12:55 AM70 °FClear.6 mph94%30.12 "Hg10 mi
12:35 AM70 °FClear.6 mph94%30.12 "Hg10 mi
12:15 AM70 °FClear.7 mph94%30.13 "Hg10 mi
11:55 PM
Wed, Mar 4
70 °FClear.6 mph88%30.13 "Hg10 mi
11:35 PM70 °FClear.6 mph94%30.14 "Hg10 mi
11:15 PM70 °FClear.5 mph94%30.14 "Hg10 mi
10:35 PM70 °FClear.6 mph88%30.15 "Hg10 mi
10:15 PM70 °FClear.6 mph88%30.15 "Hg10 mi
9:55 PM70 °FClear.6 mph88%30.15 "Hg10 mi
9:15 PM72 °FClear.7 mph78%30.15 "Hg10 mi
8:55 PM72 °FClear.8 mph78%30.15 "Hg10 mi
8:35 PM72 °FClear.10 mph78%30.14 "Hg10 mi
8:15 PM72 °FClear.9 mph78%30.14 "Hg10 mi
7:55 PM72 °FClear.9 mph78%30.13 "Hg10 mi
7:35 PM72 °FClear.7 mph78%30.13 "Hg10 mi
7:15 PM72 °FClear.8 mph78%30.12 "Hg10 mi
2:47 PM82 °FScattered clouds.14 mph55%30.12 "Hg7 mi
1:50 PM81 °FPartly sunny.17 mph62%30.13 "Hg10 mi
12:50 PM81 °FPartly sunny.22 mph58%30.15 "Hg10 mi
11:47 AM81 °FPartly sunny.14 mph62%30.18 "Hg10 mi
10:50 AM79 °FPartly sunny.14 mph61%30.20 "Hg10 mi
9:47 AM77 °FScattered clouds.12 mph65%30.20 "Hg10 mi
8:47 AM75 °FPassing clouds.12 mph74%30.19 "Hg10 mi
7:47 AM72 °FPassing clouds.6 mph83%30.17 "Hg10 mi
6:50 AM68 °FPassing clouds.No wind88%30.15 "Hg10 mi
6:15 AM68 °FPartly cloudy.3 mph83%30.14 "Hg10 mi
5:55 AM68 °FPartly cloudy.No wind83%30.14 "Hg10 mi
5:35 AM68 °FPassing clouds.3 mph83%30.13 "Hg10 mi
5:15 AM68 °FClear.3 mph83%30.13 "Hg10 mi
4:55 AM68 °FClear.3 mph83%30.12 "Hg10 mi
4:35 AM70 °FClear.5 mph78%30.12 "Hg10 mi
4:15 AM70 °FClear.5 mph78%30.12 "Hg10 mi
3:55 AM70 °FPassing clouds.3 mph83%30.12 "Hg10 mi
3:35 AM70 °FPassing clouds.No wind83%30.12 "Hg10 mi
3:15 AM70 °FPassing clouds.3 mph83%30.12 "Hg10 mi
Weather by CustomWeather, © 2015

See weather overviewHow to use our weather pages